JST402 YSSY-YBCG

Flight info

Callsign JST402
Flight time 1h 3m
Altitude 39000
Route OLSEM1/34R OLSEM Y193 BANDA Y43 GREAV DCT GOMOL
Aircraft A20N/M-SDE2E3FGHIRWXY/LB1

Departure

Time 2026-05-06 13:19
Airport Sydney Kingsford Smith International Airport (YSSY)

Arrival

Time 2026-05-06 14:22
Airport Gold Coast Airport (YBCG)
Time Latitude Longitude Altitude Speed Heading
2026-05-06 12:22 -33.93488 151.17790 30 ft 0 kts 279°
2026-05-06 13:01 -33.93489 151.17797 30 ft 1 kts 279°
2026-05-06 13:01 -33.93490 151.17806 30 ft 1 kts 279°
2026-05-06 13:02 -33.93492 151.17816 30 ft 1 kts 277°
2026-05-06 13:02 -33.93492 151.17825 30 ft 1 kts 262°
2026-05-06 13:02 -33.93491 151.17834 30 ft 1 kts 247°
2026-05-06 13:02 -33.93488 151.17842 30 ft 1 kts 231°
2026-05-06 13:03 -33.93483 151.17849 30 ft 1 kts 211°
2026-05-06 13:03 -33.93480 151.17852 30 ft 0 kts 199°
2026-05-06 13:04 -33.93484 151.17850 30 ft 3 kts 198°
2026-05-06 13:05 -33.93536 151.17835 30 ft 12 kts 192°
2026-05-06 13:05 -33.93624 151.17815 30 ft 7 kts 189°
2026-05-06 13:05 -33.93693 151.17801 30 ft 13 kts 189°
2026-05-06 13:05 -33.93802 151.17778 23 ft 19 kts 189°
2026-05-06 13:06 -33.93929 151.17786 21 ft 15 kts 166°
2026-05-06 13:06 -33.94032 151.17816 25 ft 17 kts 167°
2026-05-06 13:06 -33.94155 151.17848 28 ft 19 kts 169°
2026-05-06 13:06 -33.94286 151.17879 25 ft 6 kts 168°
2026-05-06 13:07 -33.94310 151.17885 26 ft 8 kts 168°
2026-05-06 13:07 -33.94384 151.17903 26 ft 14 kts 168°
2026-05-06 13:07 -33.94486 151.17889 25 ft 17 kts 205°
2026-05-06 13:07 -33.94590 151.17899 26 ft 13 kts 168°
2026-05-06 13:08 -33.94700 151.17928 24 ft 19 kts 168°
2026-05-06 13:08 -33.94846 151.17966 20 ft 23 kts 168°
2026-05-06 13:08 -33.94993 151.18003 24 ft 19 kts 167°
2026-05-06 13:08 -33.95099 151.18080 26 ft 18 kts 106°
2026-05-06 13:09 -33.95079 151.18244 24 ft 22 kts 78°
2026-05-06 13:09 -33.95049 151.18408 30 ft 4 kts 78°
2026-05-06 13:09 -33.95049 151.18409 30 ft 0 kts 78°
2026-05-06 13:11 -33.95044 151.18452 28 ft 12 kts 91°
2026-05-06 13:12 -33.95111 151.18534 26 ft 15 kts 144°
2026-05-06 13:12 -33.95201 151.18631 30 ft 19 kts 135°
2026-05-06 13:12 -33.95322 151.18721 27 ft 22 kts 162°
2026-05-06 13:12 -33.95486 151.18764 24 ft 24 kts 168°
2026-05-06 13:13 -33.95633 151.18802 25 ft 19 kts 167°
2026-05-06 13:13 -33.95769 151.18838 29 ft 22 kts 167°
2026-05-06 13:13 -33.95924 151.18879 27 ft 24 kts 167°
2026-05-06 13:13 -33.96081 151.18920 29 ft 20 kts 168°
2026-05-06 13:14 -33.96226 151.18956 26 ft 23 kts 168°
2026-05-06 13:14 -33.96371 151.18993 24 ft 23 kts 167°
2026-05-06 13:14 -33.96546 151.19042 19 ft 27 kts 167°
2026-05-06 13:14 -33.96716 151.19079 18 ft 26 kts 179°
2026-05-06 13:15 -33.96874 151.19081 20 ft 22 kts 169°
2026-05-06 13:15 -33.97024 151.19119 20 ft 22 kts 168°
2026-05-06 13:15 -33.97126 151.19170 21 ft 12 kts 123°
2026-05-06 13:15 -33.97120 151.19260 23 ft 13 kts 81°
2026-05-06 13:16 -33.97118 151.19276 20 ft 0 kts 81°
2026-05-06 13:16 -33.97113 151.19306 21 ft 10 kts 76°
2026-05-06 13:17 -33.97046 151.19373 21 ft 15 kts
2026-05-06 13:17 -33.97022 151.19365 21 ft 0 kts 348°
2026-05-06 13:18 -33.96922 151.19339 19 ft 47 kts 347°
2026-05-06 13:18 -33.96363 151.19195 22 ft 113 kts 347°
2026-05-06 13:18 -33.95466 151.18953 207 ft 143 kts 346°
2026-05-06 13:19 -33.94484 151.18748 830 ft 143 kts 355°
2026-05-06 13:19 -33.93522 151.18923 1579 ft 139 kts 15°
2026-05-06 13:19 -33.92625 151.19426 2127 ft 151 kts 24°
2026-05-06 13:19 -33.91676 151.20164 2528 ft 174 kts 30°
2026-05-06 13:20 -33.90637 151.21075 3016 ft 195 kts 32°
2026-05-06 13:20 -33.89485 151.22109 3545 ft 218 kts 33°
2026-05-06 13:20 -33.88207 151.23248 4135 ft 240 kts 32°
2026-05-06 13:20 -33.86792 151.24493 4492 ft 264 kts 32°
2026-05-06 13:21 -33.85304 151.25794 4603 ft 269 kts 33°
2026-05-06 13:21 -33.83827 151.27184 4708 ft 272 kts 45°
2026-05-06 13:21 -33.82864 151.29172 4830 ft 279 kts 65°
2026-05-06 13:21 -33.82203 151.31376 4938 ft 282 kts 69°
2026-05-06 13:22 -33.81608 151.33635 5385 ft 285 kts 70°
2026-05-06 13:22 -33.81025 151.35934 6422 ft 288 kts 72°
2026-05-06 13:22 -33.80622 151.38307 7529 ft 292 kts 79°
2026-05-06 13:22 -33.80339 151.40755 8542 ft 298 kts 81°
2026-05-06 13:23 -33.80013 151.43233 9580 ft 302 kts 73°
2026-05-06 13:23 -33.79263 151.45596 10463 ft 308 kts 58°
2026-05-06 13:23 -33.77990 151.47768 10889 ft 329 kts 45°
2026-05-06 13:23 -33.76304 151.49742 11336 ft 346 kts 37°
2026-05-06 13:24 -33.74421 151.51585 12177 ft 352 kts 34°
2026-05-06 13:24 -33.72499 151.53362 13085 ft 355 kts 34°
2026-05-06 13:24 -33.70521 151.55176 13973 ft 360 kts 34°
2026-05-06 13:24 -33.68521 151.57022 14794 ft 364 kts 34°
2026-05-06 13:25 -33.66490 151.58865 15627 ft 367 kts 31°
2026-05-06 13:25 -33.64285 151.60408 16433 ft 368 kts 22°
2026-05-06 13:25 -33.61908 151.61546 17230 ft 369 kts 13°
2026-05-06 13:25 -33.59433 151.62402 18024 ft 372 kts 12°
2026-05-06 13:26 -33.56932 151.63267 18758 ft 376 kts 12°
2026-05-06 13:26 -33.54411 151.64146 19466 ft 379 kts 12°
2026-05-06 13:26 -33.51861 151.65039 20108 ft 384 kts 12°
2026-05-06 13:26 -33.49283 151.65943 20782 ft 388 kts 12°
2026-05-06 13:27 -33.46714 151.66843 21445 ft 392 kts 11°
2026-05-06 13:27 -33.44083 151.67764 22095 ft 396 kts 11°
2026-05-06 13:27 -33.41423 151.68694 22747 ft 400 kts 11°
2026-05-06 13:27 -33.38737 151.69633 23401 ft 404 kts 11°
2026-05-06 13:28 -33.36025 151.70581 23968 ft 408 kts 11°
2026-05-06 13:28 -33.33291 151.71538 24541 ft 410 kts 10°
2026-05-06 13:28 -33.30543 151.72498 25071 ft 413 kts 10°
2026-05-06 13:28 -33.27771 151.73465 25607 ft 416 kts
2026-05-06 13:29 -33.24985 151.74435 26135 ft 419 kts
2026-05-06 13:29 -33.22220 151.75397 26656 ft 421 kts
2026-05-06 13:29 -33.19397 151.76379 27156 ft 424 kts
2026-05-06 13:29 -33.16555 151.77366 27648 ft 427 kts
2026-05-06 13:30 -33.13696 151.78359 28115 ft 429 kts
2026-05-06 13:30 -33.10818 151.79357 28566 ft 432 kts
2026-05-06 13:30 -33.07928 151.80360 29028 ft 434 kts
2026-05-06 13:30 -33.05020 151.81367 29449 ft 437 kts
2026-05-06 13:31 -33.02094 151.82380 29865 ft 439 kts
2026-05-06 13:31 -32.99150 151.83398 30275 ft 442 kts
2026-05-06 13:31 -32.96230 151.84408 30627 ft 444 kts
2026-05-06 13:31 -32.93253 151.85436 30987 ft 447 kts
2026-05-06 13:32 -32.90265 151.86468 31388 ft 448 kts
2026-05-06 13:32 -32.87279 151.87500 31839 ft 446 kts
2026-05-06 13:32 -32.84299 151.88529 32330 ft 445 kts
2026-05-06 13:32 -32.81328 151.89554 32808 ft 444 kts
2026-05-06 13:33 -32.78364 151.90575 33271 ft 443 kts
2026-05-06 13:33 -32.75408 151.91593 33732 ft 442 kts
2026-05-06 13:33 -32.72461 151.92606 34157 ft 441 kts
2026-05-06 13:33 -32.69554 151.93604 34490 ft 441 kts
2026-05-06 13:34 -32.66608 151.94614 34820 ft 441 kts
2026-05-06 13:34 -32.63662 151.95624 35145 ft 441 kts
2026-05-06 13:34 -32.60716 151.96633 35470 ft 441 kts
2026-05-06 13:34 -32.57773 151.97642 35795 ft 440 kts
2026-05-06 13:35 -32.54827 151.98650 36086 ft 441 kts
2026-05-06 13:35 -32.51884 151.99657 36412 ft 440 kts
2026-05-06 13:35 -32.48944 152.00662 36706 ft 440 kts
2026-05-06 13:35 -32.46040 152.01654 36974 ft 440 kts
2026-05-06 13:36 -32.43097 152.02661 37221 ft 440 kts
2026-05-06 13:36 -32.40156 152.03664 37513 ft 440 kts
2026-05-06 13:36 -32.37213 152.04667 37782 ft 440 kts
2026-05-06 13:36 -32.34270 152.05669 38059 ft 440 kts
2026-05-06 13:37 -32.31330 152.06670 38328 ft 440 kts
2026-05-06 13:37 -32.28392 152.07669 38579 ft 440 kts
2026-05-06 13:37 -32.25451 152.08668 38812 ft 439 kts
2026-05-06 13:37 -32.22514 152.09666 38950 ft 440 kts
2026-05-06 13:38 -32.19616 152.10655 39018 ft 439 kts
2026-05-06 13:38 -32.13766 152.12640 39054 ft 437 kts
2026-05-06 13:39 -32.07920 152.14618 39067 ft 437 kts
2026-05-06 13:39 -32.02068 152.16596 39060 ft 437 kts
2026-05-06 13:40 -31.96223 152.18574 39062 ft 436 kts
2026-05-06 13:40 -31.90425 152.20531 39068 ft 436 kts
2026-05-06 13:41 -31.84587 152.22492 39061 ft 436 kts
2026-05-06 13:41 -31.78752 152.24457 39069 ft 436 kts
2026-05-06 13:42 -31.72921 152.26421 39083 ft 436 kts
2026-05-06 13:42 -31.67133 152.28365 39077 ft 434 kts
2026-05-06 13:43 -31.61319 152.30314 39082 ft 435 kts
2026-05-06 13:43 -31.55498 152.32260 39074 ft 433 kts
2026-05-06 13:44 -31.49695 152.34201 39083 ft 435 kts
2026-05-06 13:44 -31.43869 152.36145 39091 ft 435 kts
2026-05-06 13:45 -31.38099 152.38075 39083 ft 433 kts
2026-05-06 13:45 -31.29398 152.40971 39076 ft 434 kts
2026-05-06 13:46 -31.23596 152.42898 39084 ft 434 kts
2026-05-06 13:46 -31.17833 152.44810 39087 ft 434 kts
2026-05-06 13:47 -31.12028 152.46735 39083 ft 433 kts
2026-05-06 13:47 -31.06243 152.48649 39095 ft 433 kts
2026-05-06 13:48 -31.00440 152.50569 39080 ft 433 kts
2026-05-06 13:48 -30.94645 152.52488 39083 ft 433 kts
2026-05-06 13:49 -30.88892 152.54387 39076 ft 433 kts
2026-05-06 13:49 -30.83105 152.56295 39072 ft 431 kts
2026-05-06 13:50 -30.77348 152.58451 39084 ft 441 kts
2026-05-06 13:50 -30.71597 152.60985 39084 ft 443 kts
2026-05-06 13:51 -30.65859 152.63507 39091 ft 443 kts
2026-05-06 13:51 -30.60118 152.66033 39075 ft 441 kts
2026-05-06 13:52 -30.54382 152.68544 39080 ft 439 kts
2026-05-06 13:52 -30.48649 152.71049 39087 ft 441 kts
2026-05-06 13:53 -30.42951 152.73527 39094 ft 440 kts
2026-05-06 13:53 -30.37229 152.76022 39098 ft 439 kts
2026-05-06 13:54 -30.31485 152.78521 39091 ft 441 kts
2026-05-06 13:54 -30.25740 152.81024 39097 ft 442 kts
2026-05-06 13:55 -30.19996 152.83521 39092 ft 440 kts
2026-05-06 13:55 -30.14259 152.86009 39087 ft 441 kts
2026-05-06 13:56 -30.08533 152.88485 39100 ft 444 kts
2026-05-06 13:56 -30.02784 152.90979 39091 ft 439 kts
2026-05-06 13:57 -29.97057 152.93451 39094 ft 441 kts
2026-05-06 13:57 -29.91301 152.95936 39094 ft 442 kts
2026-05-06 13:58 -29.85582 152.98401 39094 ft 442 kts
2026-05-06 13:58 -29.79824 153.00879 39089 ft 442 kts
2026-05-06 13:59 -29.74066 153.03355 39085 ft 442 kts
2026-05-06 13:59 -29.68317 153.05825 39076 ft 440 kts
2026-05-06 14:00 -29.62618 153.08270 39079 ft 440 kts
2026-05-06 14:00 -29.56885 153.10725 39050 ft 440 kts
2026-05-06 14:01 -29.54007 153.11954 38805 ft 442 kts
2026-05-06 14:01 -29.51118 153.13186 38165 ft 444 kts
2026-05-06 14:01 -29.48201 153.14424 37202 ft 451 kts
2026-05-06 14:01 -29.45234 153.15680 36138 ft 458 kts
2026-05-06 14:02 -29.42237 153.16955 35292 ft 461 kts
2026-05-06 14:02 -29.39220 153.18241 34404 ft 464 kts
2026-05-06 14:02 -29.36188 153.19532 33434 ft 466 kts
2026-05-06 14:02 -29.33186 153.20811 32496 ft 467 kts 10°
2026-05-06 14:03 -29.30140 153.22106 31539 ft 468 kts 11°
2026-05-06 14:03 -29.27086 153.23403 30602 ft 468 kts 11°
2026-05-06 14:03 -29.24037 153.24697 29766 ft 466 kts 12°
2026-05-06 14:03 -29.21016 153.25984 28999 ft 460 kts 12°
2026-05-06 14:04 -29.18036 153.27254 28250 ft 455 kts 12°
2026-05-06 14:04 -29.15081 153.28510 27493 ft 451 kts 12°
2026-05-06 14:04 -29.12152 153.29752 26753 ft 447 kts 13°
2026-05-06 14:04 -29.09281 153.30969 26005 ft 444 kts 13°
2026-05-06 14:05 -29.06389 153.32193 25241 ft 442 kts 13°
2026-05-06 14:05 -29.03515 153.33409 24492 ft 439 kts 13°
2026-05-06 14:05 -29.00654 153.34618 23749 ft 437 kts 14°
2026-05-06 14:05 -28.97827 153.35815 22873 ft 428 kts 14°
2026-05-06 14:06 -28.95089 153.36979 22217 ft 412 kts 14°
2026-05-06 14:06 -28.92438 153.38105 21498 ft 400 kts 14°
2026-05-06 14:06 -28.90724 153.38830 21042 ft 393 kts 14°
2026-05-06 14:06 -28.88187 153.39901 20336 ft 384 kts 14°
2026-05-06 14:07 -28.84916 153.41280 19413 ft 374 kts 14°
2026-05-06 14:07 -28.82499 153.42298 18768 ft 368 kts 15°
2026-05-06 14:07 -28.80087 153.43310 18047 ft 371 kts 15°
2026-05-06 14:07 -28.77668 153.44325 17408 ft 369 kts 15°
2026-05-06 14:08 -28.75260 153.45338 16735 ft 369 kts 15°
2026-05-06 14:08 -28.73666 153.46008 16304 ft 368 kts 15°
2026-05-06 14:08 -28.71265 153.47019 15637 ft 368 kts 16°
2026-05-06 14:08 -28.68862 153.48029 14929 ft 369 kts 16°
2026-05-06 14:09 -28.66463 153.49039 14247 ft 368 kts 16°
2026-05-06 14:09 -28.64061 153.50049 13551 ft 368 kts 16°
2026-05-06 14:09 -28.61671 153.51054 12904 ft 365 kts 17°
2026-05-06 14:09 -28.58534 153.52373 12032 ft 362 kts 17°
2026-05-06 14:10 -28.56942 153.53041 11587 ft 360 kts 17°
2026-05-06 14:10 -28.54592 153.54027 10929 ft 360 kts 17°
2026-05-06 14:10 -28.52277 153.54997 10269 ft 359 kts 17°
2026-05-06 14:10 -28.49975 153.55964 10039 ft 345 kts 18°
2026-05-06 14:11 -28.47776 153.56888 9890 ft 330 kts 18°
2026-05-06 14:11 -28.45672 153.57773 9743 ft 315 kts 18°
2026-05-06 14:11 -28.43662 153.58617 9606 ft 302 kts 17°
2026-05-06 14:11 -28.41714 153.59433 9262 ft 296 kts 17°
2026-05-06 14:12 -28.39784 153.60239 8822 ft 295 kts 18°
2026-05-06 14:12 -28.37870 153.61038 8225 ft 292 kts 18°
2026-05-06 14:12 -28.35966 153.61832 7603 ft 291 kts 18°
2026-05-06 14:12 -28.34071 153.62623 6999 ft 289 kts 18°
2026-05-06 14:13 -28.32197 153.63300 6490 ft 283 kts
2026-05-06 14:13 -28.30272 153.63505 6043 ft 273 kts 356°
2026-05-06 14:13 -28.28409 153.63338 5621 ft 265 kts 353°
2026-05-06 14:13 -28.26598 153.63167 5224 ft 258 kts 353°
2026-05-06 14:14 -28.24825 153.63008 4823 ft 255 kts 354°
2026-05-06 14:14 -28.23060 153.62851 4470 ft 250 kts 354°
2026-05-06 14:14 -28.21385 153.62704 4329 ft 234 kts 354°
2026-05-06 14:14 -28.19801 153.62564 4079 ft 225 kts 354°
2026-05-06 14:15 -28.18287 153.62428 3891 ft 221 kts 354°
2026-05-06 14:15 -28.16712 153.62286 3833 ft 228 kts 354°
2026-05-06 14:15 -28.15214 153.61915 3762 ft 214 kts 334°
2026-05-06 14:15 -28.14023 153.61021 3665 ft 198 kts 318°
2026-05-06 14:16 -28.12987 153.60047 3439 ft 190 kts 319°
2026-05-06 14:16 -28.11977 153.59118 3356 ft 192 kts 320°
2026-05-06 14:16 -28.10948 153.58180 3335 ft 180 kts 320°
2026-05-06 14:16 -28.10033 153.57349 3303 ft 157 kts 320°
2026-05-06 14:17 -28.09219 153.56611 3328 ft 144 kts 320°
2026-05-06 14:17 -28.08541 153.55866 3235 ft 132 kts 309°
2026-05-06 14:17 -28.08013 153.55040 3038 ft 129 kts 300°
2026-05-06 14:17 -28.07609 153.54132 2801 ft 130 kts 291°
2026-05-06 14:18 -28.07328 153.53148 2549 ft 133 kts 283°
2026-05-06 14:18 -28.07187 153.52126 2336 ft 131 kts 274°
2026-05-06 14:18 -28.07186 153.51099 2115 ft 130 kts 264°
2026-05-06 14:18 -28.07326 153.50094 2068 ft 132 kts 255°
2026-05-06 14:19 -28.07652 153.49104 2007 ft 133 kts 238°
2026-05-06 14:19 -28.08194 153.48298 1874 ft 127 kts 221°
2026-05-06 14:19 -28.08899 153.47707 1671 ft 125 kts 205°
2026-05-06 14:19 -28.09689 153.47367 1473 ft 122 kts 190°
2026-05-06 14:20 -28.10534 153.47272 1254 ft 122 kts 176°
2026-05-06 14:20 -28.11355 153.47424 1047 ft 119 kts 161°
2026-05-06 14:20 -28.12102 153.47804 859 ft 114 kts 148°
2026-05-06 14:20 -28.12807 153.48283 795 ft 122 kts 150°
2026-05-06 14:21 -28.13566 153.48766 470 ft 125 kts 152°
2026-05-06 14:21 -28.14304 153.49212 323 ft 117 kts 149°
2026-05-06 14:21 -28.15030 153.49673 199 ft 120 kts 149°
2026-05-06 14:21 -28.15757 153.50137 42 ft 119 kts 152°
2026-05-06 14:22 -28.16356 153.50516 28 ft 66 kts 152°
2026-05-06 14:22 -28.16733 153.50753 29 ft 59 kts 152°
2026-05-06 14:22 -28.16937 153.50904 27 ft 16 kts 121°
2026-05-06 14:22 -28.16916 153.51006 28 ft 14 kts 64°
2026-05-06 14:23 -28.16874 153.51100 26 ft 15 kts 62°
2026-05-06 14:23 -28.16857 153.51203 24 ft 7 kts 109°
2026-05-06 14:23 -28.16830 153.51254 28 ft 12 kts 62°